User: anonymous   Login
Location: Vihti�l�
(61.3833°N, 23.0667°E)
Time: 16:44:01
(UTC+00:00)
Language:

ATLAS 3B R/B - Orbit

View from above orbital plane
View from above orbital plane
View from above satellite
View from above satellite

Ground track
Ground track

The orbit data is extracted from the following two-line orbital elements,

1 28538U 05004B   21061.19040431 0.00000000  00000-0  00000-0 0    00
2 28538  63.8280 123.7798 0122816  21.2244 338.7756 13.43141061    00
Epoch (UTC): 02 March 2021 04:34:10
Eccentricity: 0.0122816
inclination: 63.8280°
perigee height: 1006 km
apogee height: 1189 km
right ascension of ascending node: 123.7798°
argument of perigee: 21.2244°
revolutions per day: 13.43141061
mean anomaly at epoch: 338.7756°
orbit number at epoch: 0

The dashed part of the orbit path shows where the satellite is in the earth's shadow,  

DLR